Albuquerque, NM

3:25 AM MST on February 13, 2016 (GMT -0700)
Albuquerque International Sunport

Weather History for KABQ - September, 2012

Change the Weather History Date:

Wednesday, September 12, 2012

  Actual Average Record
Temperature  
Mean Temperature 67 °F 71 °F  
Max Temperature 75 °F 82 °F 95 °F (1979)
Min Temperature 58 °F 59 °F 37 °F (1916)
Degree Days  
Heating Degree Days 0 0  
Month to date heating degree days 0 0  
Since 1 July heating degree days 0 0  
Cooling Degree Days 2 6  
Month to date cooling degree days 130 92  
Year to date cooling degree days 1676 1249  
Growing Degree Days 16 (Base 50)    
Moisture  
Dew Point 55 °F    
Average Humidity 65    
Maximum Humidity 84    
Minimum Humidity 46    
Precipitation  
Precipitation 0.16 in 0.03 in 0.60 in (2013)
Month to date precipitation 0.35 0.44  
Year to date precipitation 5.14 6.72  
Snow  
Snow 0.00 in - - ()
Month to date snowfall 0.0  
Since 1 July snowfall 0.0  
Since 1 September snowfall 0.0  
Snow Depth 0.00 in    
Sea Level Pressure  
Sea Level Pressure 30.00 in    
Wind  
Wind Speed 9 mph (ENE)    
Max Wind Speed 35 mph    
Max Gust Speed 40 mph    
Visibility 10 miles    
Events Rain , Thunderstorm    
T = Trace of Precipitation, MM = Missing Value Source: NWS Daily Summary

Daily Weather History Graph

Daily Weather History Graph

Search for Another Location

Airport or City:

Trip Planner

Search our weather history database for the weather conditions in past years. The results will help you decide how hot, cold, wet, or windy it might be!

Date:

Astronomy

Sep. 12, 2012 Rise Set
Actual Time 6:47 AM MDT 7:16 PM MDT
Civil Twilight 6:22 AM MDT 7:42 PM MDT
Nautical Twilight 5:52 AM MDT 8:12 PM MDT
Astronomical Twilight 5:21 AM MDT 8:42 PM MDT
Moon 3:14 AM MDT (9/12) 5:00 PM MDT (9/12)
Length of Visible Light 13h 20m
Length of Day
12h 29m
Waning Crescent, 13% of the Moon is Illuminated
Sep 12
Waning Crescent
Sep 15
New
Sep 22
First Quarter
Sep 29
Full
Oct 8
Last Quarter

Hourly Weather History & Observations

Time (MDT) Temp. Dew Point Humidity Pressure Visibility Wind Dir Wind Speed Gust Speed Precip Events Conditions
12:52 AM 62.1 °F 57.9 °F 86% 29.94 in 10.0 mi SE 6.9 mph - N/A   Scattered Clouds
1:52 AM 61.0 °F 55.9 °F 83% 29.92 in 10.0 mi SE 5.8 mph - N/A   Scattered Clouds
2:52 AM 62.1 °F 55.9 °F 80% 29.92 in 10.0 mi South 3.5 mph - N/A   Mostly Cloudy
3:52 AM 62.1 °F 55.9 °F 80% 29.92 in 10.0 mi Calm Calm - N/A   Mostly Cloudy
4:52 AM 62.1 °F 55.0 °F 78% 29.92 in 10.0 mi SSW 3.5 mph - N/A   Mostly Cloudy
5:52 AM 61.0 °F 55.9 °F 83% 29.96 in 10.0 mi ESE 5.8 mph - N/A   Mostly Cloudy
6:52 AM 60.1 °F 55.0 °F 83% 29.97 in 10.0 mi ESE 4.6 mph - N/A   Mostly Cloudy
7:52 AM 62.1 °F 55.0 °F 78% 29.99 in 10.0 mi SE 3.5 mph - N/A   Mostly Cloudy
8:52 AM 63.0 °F 55.0 °F 75% 30.01 in 10.0 mi ESE 3.5 mph - 0.00 in Rain Light Rain
9:52 AM 64.9 °F 54.0 °F 68% 30.01 in 10.0 mi Calm Calm - 0.00 in   Overcast
10:52 AM 64.9 °F 57.9 °F 78% 30.03 in 10.0 mi NW 5.8 mph - 0.00 in Rain Light Rain
11:52 AM 68.0 °F 55.9 °F 65% 30.01 in 10.0 mi North 5.8 mph - 0.00 in   Mostly Cloudy
12:52 PM 69.1 °F 55.0 °F 61% 29.99 in 10.0 mi Variable 3.5 mph - N/A   Mostly Cloudy
1:52 PM 73.0 °F 54.0 °F 51% 29.95 in 10.0 mi NNE 3.5 mph - 0.00 in   Mostly Cloudy
2:52 PM 75.2 °F 53.6 °F 47% 30.13 in 10.0 mi NW 3.5 mph - N/A   Mostly Cloudy
3:52 PM 72.0 °F 53.1 °F 51% 29.93 in 10.0 mi West 6.9 mph - N/A Thunderstorm Thunderstorm
4:52 PM 63.0 °F 59.0 °F 87% 29.97 in 4.0 mi NW 12.7 mph - 0.15 in Rain , Thunderstorm Light Thunderstorms and Rain
5:13 PM 64.4 °F 59.0 °F 83% 30.15 in 10.0 mi North 9.2 mph - 0.01 in Rain Light Rain
5:52 PM 64.0 °F 59.0 °F 84% 29.97 in 10.0 mi NNE 11.5 mph - 0.01 in   Mostly Cloudy
6:52 PM 64.0 °F 57.9 °F 80% 29.99 in 10.0 mi NNW 9.2 mph - N/A   Mostly Cloudy
7:52 PM 64.0 °F 57.0 °F 78% 30.01 in 10.0 mi North 5.8 mph - N/A   Mostly Cloudy
8:49 PM 64.4 °F 53.6 °F 68% 30.22 in 10.0 mi East 18.4 mph 25.3 mph N/A   Mostly Cloudy
8:52 PM 64.0 °F 53.1 °F 67% 30.04 in 10.0 mi East 20.7 mph 25.3 mph N/A   Mostly Cloudy
9:52 PM 61.0 °F 48.9 °F 64% 30.06 in 10.0 mi East 31.1 mph 38.0 mph N/A   Overcast
10:52 PM 57.9 °F 50.0 °F 75% 30.09 in 10.0 mi East 25.3 mph 38.0 mph 0.00 in Rain Light Rain
11:52 PM 57.9 °F 48.9 °F 72% 30.08 in 10.0 mi East 27.6 mph 35.7 mph 0.00 in   Overcast